[[{"header":{"parameterUnit":"m.s-1","parameterCategory":1,"la1":30.2991,"la2":30.254,"lo1":-89.0895,"lo2":-89.0444,"dy":0.0017,"dx":0.0017,"nx":28,"ny":28,"refTime":"2024-06-28T09:00:00:Z","depth":0,"parameterNumber":2,"parameterNumberName":"U-component_of_WINDS"},"data":[0,0,0,0,0,0,0,0,0,0,0,0,0,0,0,0,0,0,0,0,0,0,0,0,0,0,0,0,0,0,0,0,0,0,0,0,0,0,0,0,0,0,0,0,0,0,0,0,0,0,0,0,0,0,0,0,0,0,1.4956,1.4956,0,1.4929,1.4929,1.4929,1.4856,1.4854,1.4852,1.4851,1.4825,1.4825,1.4826,0,0,0,0,0,0,0,0,0,0,0,0,0,1.4944,1.4945,1.4956,1.4956,1.4956,1.493,1.4929,1.4929,1.4856,1.4854,1.4852,1.485,1.4824,1.4825,1.4826,0,0,0,0,0,0,0,0,0,0,0,0,0,1.4937,1.4945,1.4956,1.4916,1.4912,1.493,1.4929,1.4929,1.4856,1.4854,1.4851,1.4849,1.4824,1.4825,1.4826,1.4881,0,0,1.483,1.483,0,0,0,0,0,0,0,0,1.4937,1.4937,1.4922,1.4919,1.4915,1.4893,1.4915,1.4913,1.4857,1.4878,1.4851,1.4848,1.485,1.4848,1.4849,1.488,1.4879,1.483,1.4831,1.4831,1.4832,0,0,0,0,0,0,0,1.4938,1.4938,1.4946,1.4922,1.4917,1.4899,1.4895,1.4914,1.4877,1.4876,1.487,1.4868,1.4847,1.4848,1.4848,1.4878,1.483,1.4831,1.4832,1.4832,1.495,1.4953,0,0,0,0,0,0,1.4944,1.4939,1.4947,1.4945,1.492,1.4901,1.4897,1.4903,1.4877,1.4871,1.487,1.4865,1.4847,1.4846,1.4846,1.4907,1.4831,1.4832,1.4833,1.4948,1.4951,1.4954,0,0,0,0,0,0,1.4944,1.4945,1.4948,1.494,1.4939,1.4904,1.4911,1.4903,1.4904,1.4873,1.4866,1.4878,1.4845,1.4845,1.4872,1.4905,1.4833,1.4834,1.4945,1.4949,1.4952,1.503,0,0,0,0,0,0,1.4944,1.4946,1.4967,1.4941,1.494,1.4975,1.4913,1.4905,1.4906,1.4899,1.4878,1.4872,1.4843,1.4871,1.4874,1.4905,1.4835,1.4942,1.4947,1.4951,1.5024,1.5036,1.5046,0,0,0,0,0,1.4944,1.499,1.4968,1.4969,1.4965,1.4977,1.4976,1.4941,1.4909,1.4929,1.4909,1.4873,1.4901,1.4874,1.4877,1.4909,1.494,1.4945,1.4951,1.502,1.5034,1.5046,0,0,0,0,0,0,1.5021,1.4986,1.4961,1.5001,1.4992,1.4964,1.4989,1.4957,1.4958,1.4951,1.4908,1.4904,1.4938,1.4926,1.4897,1.496,1.4914,1.4921,1.4966,1.4979,1.499,1.4991,1.4836,0,0,0,0,0,1.5043,1.5055,1.5024,1.5062,1.5059,1.5025,1.5029,1.5002,1.4992,1.4988,1.4969,1.4961,1.4967,1.4972,1.4977,1.5022,1.5016,1.5046,1.5056,1.5065,1.5071,1.5092,1.5105,1.4972,1.4972,1.4972,0,0,1.5088,1.507,1.5081,1.5077,1.5067,1.508,1.5022,1.5039,1.5048,1.499,1.5015,1.5001,1.4988,1.5024,1.5039,1.5016,1.5106,1.5072,1.508,1.5081,1.5099,1.5112,1.5123,1.4975,1.4975,1.4974,0,0,1.5177,1.5165,1.5194,1.5185,1.517,1.5147,1.5154,1.513,1.5119,1.5142,1.5098,1.5109,1.5122,1.5114,1.5111,1.5195,1.5161,1.5197,1.5253,1.5274,1.5285,1.5294,1.5322,1.5333,1.5203,1.5203,1.5204,0,1.5235,1.5253,1.5214,1.5233,1.5232,1.5179,1.5208,1.5201,1.5189,1.5189,1.5163,1.5176,1.5164,1.5197,1.5217,1.5217,1.5223,1.5199,1.5286,1.5295,1.5303,1.5329,1.534,1.5208,1.5207,1.5207,1.5206,0,1.5324,1.5337,1.5362,1.5351,1.5352,1.5377,1.5341,1.5347,1.5321,1.53,1.5324,1.5307,1.5306,1.5312,1.5287,1.5341,1.5326,1.5294,1.5247,1.5321,1.5345,1.5355,1.5214,1.5213,1.5211,1.521,0,0,1.5462,1.5426,1.5436,1.5429,1.5408,1.5418,1.5439,1.5437,1.5443,1.5436,1.5452,1.5463,1.5432,1.5429,1.5402,1.5421,1.5486,1.5386,1.5385,1.5404,1.5543,1.5567,1.5579,1.5464,1.5465,1.5467,1.5543,0,1.5544,1.5578,1.5542,1.5583,1.5594,1.5543,1.5561,1.5549,1.553,1.5536,1.5515,1.5523,1.5482,1.548,1.5496,1.5475,1.5513,1.5469,1.5477,1.5478,1.5482,1.5592,1.5618,1.5691,1.5553,1.5554,1.5555,0,1.5646,1.5642,1.5683,1.5657,1.566,1.5677,1.5672,1.5679,1.5664,1.5649,1.5645,1.5612,1.5629,1.5584,1.5608,1.5579,1.558,1.557,1.5572,1.5571,1.5521,1.5593,1.5713,1.5724,1.557,1.5569,1.5568,0,1.574,1.5746,1.577,1.5766,1.5737,1.575,1.5739,1.5722,1.5722,1.5717,1.5717,1.5715,1.5714,1.5713,1.5679,1.565,1.5707,1.5659,1.5694,1.5695,1.5708,1.5708,1.5829,1.571,1.571,1.571,1.571,0,1.5836,1.5863,1.5812,1.5828,1.5856,1.5815,1.5844,1.5827,1.5812,1.5823,1.5779,1.579,1.5746,1.5752,1.5726,1.5748,1.5749,1.5736,1.5729,1.574,1.5741,1.574,1.5733,1.5713,1.5712,1.5712,1.5711,0,1.5947,1.5914,1.5938,1.5907,1.59,1.5922,1.5896,1.5909,1.5886,1.59,1.5901,1.5865,1.587,1.5836,1.5835,1.5818,1.5852,1.5837,1.5857,1.5852,1.5888,1.5885,1.6013,1.6027,1.59,1.5901,1.5902,0,1.601,1.6029,1.6,1.6004,1.5994,1.6001,1.6,1.596,1.5962,1.5945,1.596,1.5961,1.5959,1.5969,1.5943,1.5941,1.5924,1.5969,1.5924,1.5934,1.5924,1.5923,1.5924,1.5979,1.598,1.5982,1.5983,0,1.6124,1.6107,1.6108,1.6103,1.6103,1.6098,1.609,1.6095,1.6051,1.6055,1.6058,1.6057,1.6055,1.6056,1.6049,1.6036,1.6002,1.5997,1.6005,1.6016,1.6026,1.602,1.5882,1.5994,1.5993,1.5992,1.5992,1.5991,1.6212,1.6226,1.6207,1.621,1.6199,1.6191,1.6201,1.6178,1.6181,1.6175,1.6151,1.6159,1.6142,1.6128,1.6119,1.6124,1.6102,1.6114,1.6117,1.612,1.6126,1.6026,1.6123,1.6122,1.6122,1.6122,1.6122,0,1.6323,1.6308,1.6311,1.6299,1.6301,1.6267,1.6256,1.6259,1.6266,1.6253,1.6252,1.6255,1.6255,1.6229,1.6225,1.6234,1.6218,1.6235,1.6233,1.6231,1.6146,1.6139,1.6248,1.6247,1.6247,1.6247,1.6247,1.6247,1.6381,1.6403,1.6383,1.6397,1.6382,1.6388,1.6384,1.6377,1.6366,1.6371,1.6371,1.6353,1.6334,1.6328,1.6327,1.6319,1.6319,1.6341,1.6328,1.6249,1.6237,1.6225,1.6218,1.6342,1.6342,1.6411,1.6412,1.6412]},{"header":{"parameterUnit":"m.s-1","parameterCategory":1,"la1":30.2991,"la2":30.254,"lo1":-89.0895,"lo2":-89.0444,"dy":0.0017,"dx":0.0017,"nx":28,"ny":28,"refTime":"2024-06-28T09:00:00:Z","depth":0,"parameterNumber":3,"parameterNumberName":"V-component_of_WINDS"},"data":[0,0,0,0,0,0,0,0,0,0,0,0,0,0,0,0,0,0,0,0,0,0,0,0,0,0,0,0,0,0,0,0,0,0,0,0,0,0,0,0,0,0,0,0,0,0,0,0,0,0,0,0,0,0,0,0,0,0,6.3032,6.3033,0,6.3169,6.317,6.3172,6.3132,6.3129,6.3126,6.3124,6.3254,6.326,6.3266,0,0,0,0,0,0,0,0,0,0,0,0,0,6.2727,6.2733,6.3032,6.3034,6.3035,6.3168,6.317,6.3172,6.3132,6.3129,6.3125,6.3122,6.3252,6.3259,6.3266,0,0,0,0,0,0,0,0,0,0,0,0,0,6.2861,6.2735,6.3032,6.3032,6.3033,6.3168,6.317,6.3172,6.3133,6.3129,6.3125,6.3121,6.3249,6.3258,6.3267,6.3407,0,0,6.3295,6.3299,0,0,0,0,0,0,0,0,6.2853,6.2872,6.303,6.3032,6.3034,6.3129,6.311,6.3251,6.3134,6.3095,6.3123,6.3119,6.3215,6.3227,6.3261,6.3413,6.3419,6.3296,6.3301,6.3305,6.3308,0,0,0,0,0,0,0,6.2844,6.2866,6.3086,6.3032,6.3035,6.3022,6.3036,6.3137,6.3176,6.3098,6.3095,6.3113,6.3215,6.3252,6.3264,6.3421,6.3296,6.3304,6.3309,6.3313,6.3693,6.3698,0,0,0,0,0,0,6.2835,6.2859,6.3081,6.309,6.2932,6.3031,6.3047,6.3103,6.3175,6.3182,6.3116,6.311,6.3239,6.3253,6.3268,6.3437,6.3305,6.3314,6.3319,6.3689,6.3694,6.3699,0,0,0,0,0,0,6.2829,6.2855,6.3076,6.2974,6.3001,6.3041,6.3103,6.3107,6.3145,6.3189,6.3195,6.3148,6.3236,6.3255,6.3373,6.344,6.3318,6.3326,6.3683,6.369,6.3697,6.3774,0,0,0,0,0,0,6.282,6.2853,6.2909,6.2975,6.3007,6.3182,6.3108,6.3113,6.3162,6.3156,6.322,6.3227,6.3234,6.336,6.3382,6.3451,6.3333,6.3677,6.3686,6.3695,6.3766,6.3783,6.3798,0,0,0,0,0,6.2809,6.2923,6.2912,6.2939,6.3078,6.3186,6.3203,6.3212,6.3167,6.3222,6.3251,6.3225,6.343,6.3372,6.3397,6.3469,6.3673,6.3684,6.3694,6.3759,6.378,6.3797,0,0,0,0,0,0,6.286,6.2932,6.292,6.306,6.3118,6.3179,6.3248,6.3234,6.3303,6.3294,6.3299,6.3314,6.3435,6.3464,6.3399,6.3608,6.3544,6.356,6.3585,6.3605,6.3621,6.3611,6.3341,0,0,0,0,0,6.2888,6.2973,6.303,6.3147,6.3177,6.3208,6.3255,6.3258,6.3316,6.3339,6.3376,6.3431,6.3508,6.3558,6.3631,6.377,6.3782,6.3832,6.3848,6.386,6.3874,6.3948,6.397,6.3734,6.3733,6.3733,0,0,6.2945,6.2995,6.3048,6.3159,6.3204,6.3289,6.3229,6.3321,6.3383,6.3352,6.3467,6.3496,6.3557,6.3686,6.3745,6.3714,6.3942,6.3874,6.3884,6.389,6.3961,6.3983,6.4003,6.3741,6.3739,6.3738,0,0,6.3094,6.3141,6.3244,6.3291,6.3361,6.3381,6.3406,6.347,6.349,6.3605,6.3584,6.3656,6.3789,6.3833,6.3873,6.404,6.4018,6.4063,6.4146,6.4218,6.4237,6.4253,6.4312,6.4333,6.4076,6.4077,6.4077,0,6.3155,6.3286,6.3298,6.3393,6.3442,6.3422,6.3524,6.3568,6.3657,6.3689,6.3654,6.3821,6.3861,6.3999,6.404,6.4074,6.41,6.4055,6.4234,6.4251,6.4266,6.4322,6.4344,6.4082,6.4081,6.4081,6.408,0,6.3358,6.3449,6.3523,6.3614,6.367,6.3769,6.3793,6.3848,6.3846,6.3868,6.3985,6.4033,6.4115,6.4149,6.4146,6.4287,6.4266,6.4233,6.4168,6.4294,6.4346,6.4367,6.4089,6.4087,6.4086,6.4084,0,0,6.3541,6.3639,6.3665,6.3706,6.3783,6.3851,6.3947,6.4032,6.4078,6.414,6.422,6.4333,6.4303,6.4348,6.435,6.4414,6.4542,6.4373,6.4374,6.4402,6.4699,6.4723,6.4747,6.4529,6.4533,6.4536,6.4693,0,6.3695,6.387,6.3883,6.4038,6.4121,6.4103,6.4187,6.4241,6.4265,6.4336,6.4361,6.4441,6.4396,6.4423,6.4486,6.4513,6.4601,6.4502,6.46,6.4603,6.4584,6.4775,6.4801,6.4947,6.4714,6.4717,6.472,0,6.3899,6.3971,6.4136,6.4201,6.4236,6.4312,6.4389,6.4459,6.4519,6.4531,6.4583,6.4577,6.4672,6.4606,6.4737,6.4669,6.471,6.4729,6.4735,6.4743,6.4668,6.4787,6.4994,6.5015,6.4752,6.475,6.4747,0,6.4015,6.4152,6.4269,6.4305,6.4384,6.4437,6.4471,6.4528,6.4578,6.4644,6.4676,6.4752,6.4793,6.4851,6.4864,6.4814,6.4994,6.4929,6.5005,6.5005,6.5043,6.504,6.5258,6.5071,6.507,6.507,6.507,0,6.4185,6.4286,6.4323,6.4394,6.4506,6.452,6.4629,6.466,6.471,6.4785,6.4773,6.4842,6.4856,6.4928,6.4938,6.5044,6.5063,6.5073,6.5075,6.5074,6.5073,6.51,6.509,6.5076,6.5075,6.5073,6.5072,0,6.4333,6.4362,6.4488,6.4554,6.4572,6.4652,6.4706,6.4773,6.4796,6.4891,6.4913,6.4948,6.5032,6.5051,6.515,6.5156,6.5282,6.5274,6.5263,6.5262,6.5337,6.5329,6.5578,6.5611,6.5404,6.5406,6.5408,0,6.444,6.4518,6.4593,6.4645,6.4683,6.4765,6.4816,6.4832,6.4885,6.496,6.5018,6.5101,6.5168,6.5302,6.5334,6.5409,6.5402,6.5484,6.5412,6.5409,6.5402,6.5397,6.5404,6.5497,6.5499,6.5501,6.5503,0,6.4626,6.4637,6.4714,6.4796,6.4859,6.4923,6.4984,6.5026,6.5049,6.5109,6.5197,6.5249,6.5352,6.5433,6.5509,6.554,6.5525,6.5525,6.5547,6.5546,6.5536,6.5542,6.5299,6.5519,6.5517,6.5516,6.5515,6.5515,6.4756,6.4825,6.4889,6.4974,6.5023,6.5081,6.5148,6.518,6.5255,6.5342,6.5345,6.544,6.5496,6.5597,6.5634,6.5706,6.568,6.5711,6.5719,6.5726,6.5732,6.5526,6.5719,6.5719,6.5718,6.5718,6.5718,0,6.4941,6.4982,6.5061,6.5149,6.5216,6.5199,6.5266,6.5322,6.5407,6.5463,6.553,6.563,6.571,6.5748,6.5826,6.5876,6.5871,6.5896,6.5892,6.5899,6.5751,6.5725,6.5899,6.5899,6.5899,6.5899,6.5899,6.5899,6.5045,6.516,6.5178,6.5316,6.5355,6.5451,6.5491,6.5543,6.5588,6.5701,6.5769,6.5795,6.5843,6.5925,6.5996,6.6005,6.6033,6.6062,6.6067,6.5928,6.591,6.5892,6.5867,6.6068,6.6069,6.6209,6.621,6.6211]}]]